Regional Weather Roundup
Issued by NWS

Home | Current Version | Previous Version | Graphics & Text | Print | Product List | Glossary On
Versions: 1 2 3 4 5 6 7 8 9 10 11 12 13 14 15 16 17 18 19 20 21 22 23 24 25 26 27 28 29 30 31 32 33 34 35 36 37 38 39 40 41 42 43 44 45 46 47 48 49 50
000
ASUS43 KLMK 201302
RWRKY
KENTUCKY REGIONAL WEATHER ROUNDUP
NATIONAL WEATHER SERVICE LOUISVILLE KY
900 AM EDT WED AUG 20 2014

NOTE "FAIR" INDICATES FEW OR NO CLOUDS BELOW 12,000 FEET
WITH NO SIGNIFICANT WEATHER AND/OR OBSTRUCTIONS TO VISIBILITY.

KYZ001>023-026-027-061>063-070>075-201400-
WESTERN AND SOUTH CENTRAL KENTUCKY

CITY           SKY/WX    TMP DP  RH WIND       PRES   REMARKS
PADUCAH        SUNNY     80  75  84 SW8       29.91R
HENDERSON      SUNNY     75  72  88 S3        29.91R
OWENSBORO      SUNNY     76  75  96 S7        29.92R
HOPKINSVILLE   SUNNY     79  79 100 SW8       29.94R
BOWLING GREEN  SUNNY     78  73  84 SW6       29.95R
GLASGOW        SUNNY     76  73  92 SW3       29.96R
$$

KYZ024-025-028>034-038-045-046-053-201400-
NORTH CENTRAL KENTUCKY

CITY           SKY/WX    TMP DP  RH WIND       PRES   REMARKS
LOUISVILLE/SDF MOSUNNY   75  70  84 S5        29.93R
LOUISVILLE/LOU PTSUNNY   74  68  81 CALM      29.93S
FORT KNOX      NOT AVBL
$$

KYZ035>037-039>044-047>052-055>060-089>105-201400-
NORTHEAST KENTUCKY

CITY           SKY/WX    TMP DP  RH WIND       PRES   REMARKS
LEXINGTON      SUNNY     75  68  78 S8        29.96R
COVINGTON      MOSUNNY   69  66  90 S8        29.93R
FRANKFORT      SUNNY     74  68  81 S7        29.94R
$$

KYZ054-064>069-076>088-106>120-201400-
SOUTHEAST KENTUCKY

CITY           SKY/WX    TMP DP  RH WIND       PRES   REMARKS
JACKSON        FOG       68  66  93 CALM      30.00S VSB 3/4
LONDON         CLOUDY    73  69  87 SE5       30.01R
SOMERSET       SUNNY     73  72  94 CALM      30.00R
MIDDLESBORO    PTSUNNY   71  68  92 CALM      30.02S
MONTICELLO     SUNNY     79  74  84 CALM      30.00R
$$




USA.gov is the U.S. government's official web portal to all federal, state and local government web resources and services.